Arctic Village, AK

10:29 PM AKDT on September 19, 2017 (GMT -0800)
Arctic Village

Weather History for PARC - June, 2014

Change the Weather History Date:

Sunday, June 8, 2014

  Actual Average Record
Temperature  
Mean Temperature 54 °F -  
Max Temperature 64 °F 58 °F 71 °F (1971)
Min Temperature 44 °F 38 °F 26 °F (1970)
Degree Days  
Heating Degree Days 11    
Growing Degree Days 4 (Base 50)    
Moisture  
Dew Point 41 °F    
Average Humidity 63    
Maximum Humidity 94    
Minimum Humidity 39    
Precipitation  
Precipitation 0.08 in - - ()
Sea Level Pressure  
Sea Level Pressure 29.71 in    
Wind  
Wind Speed 9 mph (NE)    
Max Wind Speed 21 mph    
Max Gust Speed 28 mph    
Visibility 10 miles    
Events      
Averages and records for this station are not official NWS values.
T = Trace of Precipitation, MM = Missing Value Source: NWS Daily Summary

Daily Weather History Graph

Daily Weather History Graph

Search for Another Location

Airport or City:

Trip Planner

Search our weather history database for the weather conditions in past years. The results will help you decide how hot, cold, wet, or windy it might be!

Date:

Astronomy

Jun. 08, 2014 Rise Set
Actual Time 2:13 AM AKDT 1:09 AM AKDT
Civil Twilight Sun does not set Sun does not set
Nautical Twilight Sun does not set Sun does not set
Astronomical Twilight Sun does not set Sun does not set
Moon 5:51 PM AKDT (6/8) 2:18 AM AKDT (6/8)
Length of Visible Light 24h 00m
Length of Day
22h 55m
Waxing Gibbous, 78% of the Moon is Illuminated
Jun 8
Waxing Gibbous
Jun 12
Full
Jun 19
Last Quarter
Jun 27
New
Jul 5
First Quarter

Hourly Weather History & Observations

Time (AKDT) Temp. Windchill Dew Point Humidity Pressure Visibility Wind Dir Wind Speed Gust Speed Precip Events Conditions
12:16 AM 51.8 °F - 39.2 °F 62% 29.74 in 10.0 mi NNE 5.8 mph - N/A   Mostly Cloudy
12:36 AM 51.8 °F - 39.2 °F 62% 29.74 in 10.0 mi NNE 6.9 mph - N/A   Mostly Cloudy
12:56 AM 50.0 °F - 39.2 °F 66% 29.74 in 10.0 mi ENE 5.8 mph - N/A   Partly Cloudy
1:16 AM 48.2 °F - 39.2 °F 71% 29.74 in 10.0 mi NE 5.8 mph - N/A   Clear
1:36 AM 48.2 °F - 39.2 °F 71% 29.74 in 10.0 mi NE 4.6 mph - N/A   Clear
1:56 AM 46.4 °F 42.4 °F 39.2 °F 76% 29.74 in 10.0 mi NNE 8.1 mph - N/A   Clear
2:16 AM 46.4 °F 42.4 °F 39.2 °F 76% 29.74 in 10.0 mi NNE 8.1 mph - N/A   Clear
2:36 AM 48.2 °F - 37.4 °F 66% 29.74 in 10.0 mi NNE 5.8 mph - N/A   Clear
2:56 AM 44.6 °F 41.4 °F 39.2 °F 81% 29.75 in 10.0 mi East 5.8 mph - N/A   Clear
3:16 AM 44.6 °F 41.4 °F 37.4 °F 76% 29.75 in 10.0 mi ENE 5.8 mph - N/A   Clear
3:36 AM 44.6 °F 41.4 °F 39.2 °F 81% 29.74 in 10.0 mi East 5.8 mph - N/A   Clear
3:56 AM 44.6 °F 40.2 °F 39.2 °F 81% 29.74 in 10.0 mi East 8.1 mph - N/A   Clear
4:16 AM 44.6 °F 40.7 °F 39.2 °F 81% 29.74 in 10.0 mi ENE 6.9 mph - N/A   Clear
4:36 AM 46.4 °F 43.5 °F 37.4 °F 71% 29.74 in 10.0 mi NE 5.8 mph - N/A   Clear
4:56 AM 46.4 °F 42.9 °F 39.2 °F 76% 29.73 in 10.0 mi ENE 6.9 mph - N/A   Clear
5:16 AM 46.4 °F 42.4 °F 39.2 °F 76% 29.73 in 10.0 mi ENE 8.1 mph - N/A   Clear
5:36 AM 48.2 °F - 39.2 °F 71% 29.73 in 10.0 mi NE 6.9 mph - N/A   Clear
5:56 AM 48.2 °F - 39.2 °F 71% 29.73 in 10.0 mi NE 9.2 mph - N/A   Clear
6:16 AM 48.2 °F - 39.2 °F 71% 29.73 in 10.0 mi NE 10.4 mph - N/A   Clear
6:36 AM 48.2 °F - 39.2 °F 71% 29.72 in 10.0 mi NE 8.1 mph - N/A   Clear
6:56 AM 51.8 °F - 39.2 °F 62% 29.72 in 10.0 mi ENE 9.2 mph - N/A   Clear
7:16 AM 51.8 °F - 39.2 °F 62% 29.72 in 10.0 mi ENE 10.4 mph - N/A   Clear
7:36 AM 53.6 °F - 41.0 °F 62% 29.72 in 10.0 mi NE 10.4 mph - N/A   Clear
7:56 AM 55.4 °F - 39.2 °F 54% 29.71 in 10.0 mi ENE 8.1 mph - N/A   Clear
8:16 AM 55.4 °F - 39.2 °F 54% 29.71 in 10.0 mi ENE 10.4 mph - N/A   Clear
8:36 AM 57.2 °F - 39.2 °F 51% 29.71 in 10.0 mi NE 12.7 mph - N/A   Clear
8:56 AM 57.2 °F - 39.2 °F 51% 29.71 in 10.0 mi NE 12.7 mph - N/A   Clear
9:36 AM 60.8 °F - 39.2 °F 45% 29.71 in 10.0 mi NE 11.5 mph - N/A   Clear
9:56 AM 60.8 °F - 41.0 °F 48% 29.71 in 10.0 mi ENE 11.5 mph - N/A   Clear
10:16 AM 60.8 °F - 42.8 °F 52% 29.70 in 10.0 mi NE 6.9 mph - N/A   Scattered Clouds
10:36 AM 60.8 °F - 42.8 °F 52% 29.70 in 10.0 mi NE 9.2 mph - N/A   Partly Cloudy
10:56 AM 60.8 °F - 41.0 °F 48% 29.70 in 10.0 mi NE 8.1 mph - N/A   Partly Cloudy
11:16 AM 60.8 °F - 41.0 °F 48% 29.70 in 10.0 mi ESE 3.5 mph - N/A   Mostly Cloudy
11:36 AM 62.6 °F - 42.8 °F 48% 29.70 in 10.0 mi NNE 6.9 mph - N/A   Partly Cloudy
11:56 AM 62.6 °F - 39.2 °F 42% 29.69 in 10.0 mi NNE 6.9 mph - N/A   Clear
12:16 PM 62.6 °F - 41.0 °F 45% 29.69 in 10.0 mi North 6.9 mph - N/A   Clear
12:36 PM 62.6 °F - 39.2 °F 42% 29.69 in 10.0 mi NNE 5.8 mph - N/A   Scattered Clouds
12:56 PM 62.6 °F - 41.0 °F 45% 29.69 in 10.0 mi Calm Calm - N/A   Scattered Clouds
1:16 PM 62.6 °F - 39.2 °F 42% 29.69 in 10.0 mi NE 6.9 mph - N/A   Mostly Cloudy
1:36 PM 62.6 °F - 41.0 °F 45% 29.69 in 10.0 mi NE 13.8 mph - N/A   Mostly Cloudy
1:56 PM 60.8 °F - 39.2 °F 45% 29.68 in 10.0 mi NNE 10.4 mph - N/A   Scattered Clouds
2:16 PM 62.6 °F - 37.4 °F 39% 29.68 in 10.0 mi NNE 13.8 mph 17.3 mph N/A   Scattered Clouds
2:36 PM 62.6 °F - 41.0 °F 45% 29.67 in 10.0 mi NNE 12.7 mph 20.7 mph N/A   Partly Cloudy
2:56 PM 62.6 °F - 39.2 °F 42% 29.67 in 10.0 mi NNE 13.8 mph 20.7 mph N/A   Clear
3:16 PM 62.6 °F - 41.0 °F 45% 29.67 in 10.0 mi NNE 15.0 mph 19.6 mph N/A   Mostly Cloudy
3:36 PM 62.6 °F - 39.2 °F 42% 29.67 in 10.0 mi NNE 10.4 mph 20.7 mph N/A   Scattered Clouds
3:56 PM 64.4 °F - 39.2 °F 40% 29.68 in 10.0 mi NE 15.0 mph 20.7 mph N/A   Clear
4:16 PM 64.4 °F - 39.2 °F 40% 29.67 in 10.0 mi NE 19.6 mph 24.2 mph N/A   Partly Cloudy
4:36 PM 60.8 °F - 39.2 °F 45% 29.68 in 10.0 mi NNE 13.8 mph - N/A   Mostly Cloudy
4:56 PM 62.6 °F - 39.2 °F 42% 29.68 in 10.0 mi NE 17.3 mph 24.2 mph N/A   Scattered Clouds
5:16 PM 62.6 °F - 41.0 °F 45% 29.68 in 10.0 mi NE 17.3 mph 24.2 mph N/A   Scattered Clouds
5:36 PM 62.6 °F - 39.2 °F 42% 29.67 in 10.0 mi NE 17.3 mph 21.9 mph N/A   Clear
5:56 PM 62.6 °F - 39.2 °F 42% 29.67 in 10.0 mi NE 20.7 mph 26.5 mph N/A   Clear
6:16 PM 62.6 °F - 41.0 °F 45% 29.66 in 10.0 mi NNE 18.4 mph 26.5 mph N/A   Clear
6:36 PM 62.6 °F - 41.0 °F 45% 29.67 in 10.0 mi NE 19.6 mph 27.6 mph N/A   Clear
6:56 PM 62.6 °F - 39.2 °F 42% 29.68 in 10.0 mi NE 16.1 mph 25.3 mph N/A   Partly Cloudy
7:16 PM 57.2 °F - 39.2 °F 51% 29.72 in 10.0 mi SSE 8.1 mph - N/A   Mostly Cloudy
7:36 PM 51.8 °F - 44.6 °F 76% 29.73 in 10.0 mi South 8.1 mph 18.4 mph 0.04 in   Overcast
7:56 PM 51.8 °F - 46.4 °F 82% 29.73 in 7.0 mi WSW 3.5 mph - 0.07 in   Overcast
8:16 PM 50.0 °F - 46.4 °F 87% 29.73 in 10.0 mi NNW 5.8 mph - N/A   Overcast
8:36 PM 50.0 °F - 48.2 °F 94% 29.73 in 10.0 mi SSE 3.5 mph - N/A   Overcast
8:56 PM 48.2 °F - 46.4 °F 93% 29.72 in 10.0 mi NE 11.5 mph - N/A   Mostly Cloudy
9:16 PM 48.2 °F - 46.4 °F 93% 29.72 in 10.0 mi East 10.4 mph - N/A   Partly Cloudy
9:36 PM 48.2 °F - 46.4 °F 93% 29.73 in 10.0 mi NE 9.2 mph - N/A   Partly Cloudy
9:56 PM 48.2 °F - 46.4 °F 93% 29.73 in 10.0 mi NNE 10.4 mph - N/A   Mostly Cloudy
10:16 PM 48.2 °F - 46.4 °F 93% 29.75 in 10.0 mi NE 9.2 mph 17.3 mph N/A   Overcast
10:36 PM 48.2 °F - 46.4 °F 93% 29.76 in 10.0 mi East 9.2 mph - N/A   Overcast
10:56 PM 48.2 °F - 46.4 °F 93% 29.76 in 10.0 mi North 8.1 mph - N/A   Overcast
11:16 PM 48.2 °F - 46.4 °F 93% 29.76 in 10.0 mi North 9.2 mph - N/A   Overcast
11:36 PM 48.2 °F - 44.6 °F 87% 29.75 in 10.0 mi North 12.7 mph - 0.01 in   Overcast
11:56 PM 48.2 °F - 44.6 °F 87% 29.74 in 10.0 mi North 9.2 mph - 0.01 in   Mostly Cloudy